| time (UTC) | temp F | wind direction | speed MPH | gust MPH | rain 1hr in | rain 24hr in | rain mn in | humidity % | barometer mb |
| 20260906204945 | 60 | 360 | 0.0 | 4.0 | 0.00 | 0.65 | 0.65 | 96 | 1016.8 |
| 20260906204445 | 60 | 360 | 2.0 | 4.0 | 0.00 | 0.65 | 0.65 | 97 | 1016.8 |
| 20260906203945 | 60 | 360 | 2.0 | 3.0 | 0.01 | 0.65 | 0.65 | 96 | 1016.8 |
| 20260906203445 | 60 | 360 | 1.0 | 3.0 | 0.01 | 0.65 | 0.65 | 97 | 1016.8 |
| 20260906202945 | 60 | 360 | 0.0 | 3.0 | 0.01 | 0.65 | 0.65 | 97 | 1016.8 |
| 20260906202445 | 59 | 360 | 0.0 | 0.0 | 0.01 | 0.65 | 0.65 | 97 | 1016.7 |
| 20260906201945 | 59 | 360 | 0.0 | 0.0 | 0.01 | 0.65 | 0.65 | 97 | 1016.7 |
| 20260906201445 | 59 | 360 | 0.0 | 0.0 | 0.02 | 0.65 | 0.65 | 98 | 1016.7 |
| 20260906200445 | 59 | 360 | 0.0 | 3.0 | 0.02 | 0.65 | 0.65 | 98 | 1016.7 |
| 20260906195945 | 59 | 360 | 0.0 | 3.0 | 0.02 | 0.65 | 0.65 | 99 | 1016.7 |
| 20260906195445 | 59 | 360 | 0.0 | 2.0 | 0.03 | 0.65 | 0.65 | 100 | 1016.7 |
| 20260906194945 | 59 | 360 | 0.0 | 0.0 | 0.03 | 0.65 | 0.65 | 100 | 1016.7 |
| 20260906193945 | 59 | 360 | 0.0 | 1.0 | 0.02 | 0.64 | 0.64 | 100 | 1016.6 |
| 20260906193445 | 58 | 360 | 0.0 | 2.0 | 0.02 | 0.64 | 0.64 | 100 | 1016.6 |
| 20260906192945 | 58 | 360 | 0.0 | 2.0 | 0.02 | 0.64 | 0.64 | 100 | 1016.6 |
| 20260906192447 | 58 | 360 | 1.0 | 3.0 | 0.02 | 0.64 | 0.64 | 100 | 1016.6 |
| 20260906191445 | 58 | 360 | 0.0 | 3.0 | 0.01 | 0.63 | 0.63 | 100 | 1016.6 |
| 20260906190445 | 58 | 360 | 3.0 | 3.0 | 0.01 | 0.63 | 0.63 | 100 | 1016.6 |
| 20260906185945 | 58 | 360 | 2.0 | 3.0 | 0.01 | 0.63 | 0.63 | 100 | 1016.6 |
| 20260906185445 | 58 | 360 | 1.0 | 2.0 | 0.00 | 0.62 | 0.62 | 100 | 1016.6 |
| 20260906184945 | 58 | 360 | 2.0 | 3.0 | 0.01 | 0.62 | 0.62 | 100 | 1016.6 |
| 20260906184444 | 58 | 360 | 2.0 | 3.0 | 0.01 | 0.62 | 0.62 | 100 | 1016.6 |
| 20260906183444 | 58 | 360 | 1.0 | 3.0 | 0.01 | 0.62 | 0.62 | 100 | 1016.4 |
| 20260906182944 | 58 | 360 | 2.0 | 3.0 | 0.01 | 0.62 | 0.62 | 100 | 1016.4 |
| 20260906182444 | 58 | 360 | 1.0 | 3.0 | 0.02 | 0.62 | 0.62 | 100 | 1016.2 |
| 20260906181944 | 58 | 360 | 3.0 | 3.0 | 0.02 | 0.62 | 0.62 | 100 | 1016.2 |
| 20260906181444 | 58 | 360 | 1.0 | 3.0 | 0.02 | 0.62 | 0.62 | 100 | 1016.2 |
| 20260906180944 | 58 | 360 | 0.0 | 3.0 | 0.02 | 0.62 | 0.62 | 100 | 1016.2 |
| 20260906180444 | 58 | 360 | 2.0 | 3.0 | 0.02 | 0.62 | 0.62 | 100 | 1016.2 |
| 20260906175444 | 58 | 360 | 1.0 | 2.0 | 0.03 | 0.62 | 0.62 | 100 | 1016.1 |
| 20260906174944 | 58 | 360 | 1.0 | 2.0 | 0.02 | 0.61 | 0.61 | 100 | 1016.1 |
| 20260906173944 | 58 | 318 | 0.0 | 0.0 | 0.03 | 0.61 | 0.61 | 100 | 1015.9 |
| 20260906173444 | 58 | 319 | 0.0 | 0.0 | 0.03 | 0.61 | 0.61 | 100 | 1015.9 |
| 20260906172945 | 57 | 329 | 0.0 | 1.0 | 0.03 | 0.61 | 0.61 | 100 | 1015.9 |
| 20260906171944 | 57 | 329 | 0.0 | 2.0 | 0.02 | 0.60 | 0.60 | 100 | 1015.7 |
| 20260906171444 | 57 | 244 | 0.0 | 2.0 | 0.03 | 0.60 | 0.60 | 100 | 1015.7 |
| 20260906170946 | 57 | 196 | 0.0 | 2.0 | 0.03 | 0.60 | 0.60 | 100 | 1015.8 |
| 20260906170444 | 57 | 314 | 1.0 | 2.0 | 0.03 | 0.60 | 0.60 | 100 | 1015.8 |
| 20260906165944 | 57 | 250 | 0.0 | 3.0 | 0.02 | 0.59 | 0.59 | 100 | 1015.8 |
| 20260906165444 | 57 | 244 | 0.0 | 3.0 | 0.02 | 0.59 | 0.59 | 100 | 1015.9 |
| 20260906164944 | 57 | 71 | 2.0 | 2.0 | 0.02 | 0.60 | 0.59 | 100 | 1015.9 |
| 20260906164444 | 57 | 270 | 1.0 | 1.0 | 0.03 | 0.60 | 0.59 | 100 | 1015.9 |
| 20260906163944 | 57 | 204 | 0.0 | 2.0 | 0.02 | 0.59 | 0.58 | 100 | 1015.9 |
| 20260906163443 | 57 | 348 | 0.0 | 2.0 | 0.03 | 0.59 | 0.58 | 100 | 1015.9 |
| 20260906163014 | 57 | 125 | 0.0 | 1.0 | 0.03 | 0.59 | 0.58 | 100 | 1015.9 |
| 20260906162443 | 57 | 125 | 1.0 | 1.0 | 0.04 | 0.59 | 0.58 | 100 | 1015.9 |
| 20260906161444 | 57 | 115 | 0.0 | 0.0 | 0.05 | 0.58 | 0.57 | 100 | 1015.9 |
| 20260906160445 | 57 | 115 | 0.0 | 0.0 | 0.06 | 0.58 | 0.57 | 100 | 1015.9 |
| 20260906160014 | 57 | 115 | 0.0 | 0.0 | 0.06 | 0.58 | 0.57 | 100 | 1015.9 |
| 20260906155444 | 57 | 115 | 0.0 | 0.0 | 0.06 | 0.58 | 0.57 | 100 | 1016.0 |
| 20260906154945 | 57 | 115 | 0.0 | 0.0 | 0.06 | 0.58 | 0.57 | 100 | 1016.0 |
| 20260906153943 | 56 | 115 | 0.0 | 0.0 | 0.06 | 0.57 | 0.56 | 100 | 1016.0 |
| 20260906153443 | 56 | 115 | 0.0 | 0.0 | 0.05 | 0.56 | 0.55 | 100 | 1016.0 |
| 20260906152944 | 56 | 115 | 0.0 | 0.0 | 0.05 | 0.56 | 0.55 | 100 | 1016.0 |
| 20260906152513 | 56 | 115 | 0.0 | 0.0 | 0.04 | 0.55 | 0.54 | 100 | 1015.9 |
| 20260906150943 | 56 | 115 | 0.0 | 0.0 | 0.03 | 0.53 | 0.52 | 100 | 1015.6 |
| 20260906145943 | 56 | 115 | 0.0 | 0.0 | 0.03 | 0.52 | 0.51 | 100 | 1015.6 |
| 20260906145443 | 56 | 115 | 0.0 | 0.0 | 0.04 | 0.52 | 0.51 | 100 | 1015.5 |
| 20260906144943 | 56 | 115 | 0.0 | 0.0 | 0.04 | 0.52 | 0.51 | 100 | 1015.5 |
| 20260906144443 | 56 | 115 | 0.0 | 0.0 | 0.04 | 0.52 | 0.51 | 100 | 1015.5 |
| 20260906143943 | 56 | 115 | 0.0 | 0.0 | 0.03 | 0.51 | 0.50 | 100 | 1015.2 |
| 20260906143443 | 56 | 115 | 0.0 | 0.0 | 0.03 | 0.51 | 0.50 | 100 | 1015.2 |
| 20260906142943 | 56 | 115 | 0.0 | 0.0 | 0.03 | 0.51 | 0.50 | 100 | 1015.2 |
| 20260906141943 | 56 | 115 | 0.0 | 1.0 | 0.04 | 0.51 | 0.50 | 100 | 1015.1 |
| 20260906141442 | 56 | 115 | 0.0 | 1.0 | 0.03 | 0.50 | 0.49 | 100 | 1015.1 |
| 20260906140943 | 56 | 115 | 0.0 | 1.0 | 0.03 | 0.50 | 0.49 | 100 | 1015.1 |
| 20260906140443 | 56 | 115 | 0.0 | 1.0 | 0.02 | 0.49 | 0.48 | 100 | 1015.1 |
| 20260906135943 | 56 | 115 | 0.0 | 1.0 | 0.02 | 0.49 | 0.48 | 100 | 1015.1 |
| 20260906135442 | 56 | 115 | 0.0 | 1.0 | 0.01 | 0.48 | 0.47 | 100 | 1015.0 |
| 20260906134942 | 56 | 115 | 0.0 | 1.0 | 0.01 | 0.48 | 0.47 | 100 | 1015.0 |
| 20260906134513 | 56 | 115 | 0.0 | 1.0 | 0.01 | 0.48 | 0.47 | 100 | 1015.0 |
| 20260906133442 | 56 | 99 | 0.0 | 1.0 | 0.01 | 0.48 | 0.47 | 100 | 1014.9 |
| 20260906132942 | 56 | 96 | 0.0 | 1.0 | 0.02 | 0.48 | 0.47 | 100 | 1014.9 |
| 20260906132442 | 56 | 61 | 1.0 | 1.0 | 0.03 | 0.47 | 0.46 | 100 | 1014.9 |
| 20260906131944 | 56 | 117 | 0.0 | 1.0 | 0.04 | 0.47 | 0.46 | 100 | 1014.9 |
| 20260906131442 | 56 | 103 | 0.0 | 0.0 | 0.04 | 0.47 | 0.46 | 100 | 1014.9 |
| 20260906131012 | 56 | 103 | 0.0 | 0.0 | 0.12 | 0.47 | 0.46 | 100 | 1014.9 |
| 20260906130442 | 56 | 105 | 0.0 | 1.0 | 0.14 | 0.47 | 0.46 | 100 | 1014.9 |
| 20260906125942 | 56 | 109 | 0.0 | 1.0 | 0.24 | 0.47 | 0.46 | 100 | 1014.9 |
| 20260906125443 | 56 | 290 | 0.0 | 0.0 | 0.28 | 0.47 | 0.46 | 100 | 1014.8 |
| 20260906124943 | 56 | 290 | 0.0 | 0.0 | 0.29 | 0.47 | 0.46 | 100 | 1014.8 |
| 20260906124442 | 56 | 290 | 0.0 | 2.0 | 0.32 | 0.47 | 0.46 | 100 | 1014.8 |
| 20260906123942 | 56 | 290 | 0.0 | 3.0 | 0.35 | 0.47 | 0.46 | 100 | 1014.8 |
| 20260906123443 | 56 | 14 | 1.0 | 3.0 | 0.38 | 0.47 | 0.46 | 100 | 1014.8 |
| 20260906122943 | 56 | 279 | 0.0 | 0.0 | 0.37 | 0.46 | 0.45 | 100 | 1014.8 |
| 20260906122443 | 56 | 225 | 0.0 | 3.0 | 0.35 | 0.44 | 0.43 | 100 | 1014.9 |
| 20260906121942 | 56 | 222 | 0.0 | 3.0 | 0.34 | 0.43 | 0.42 | 100 | 1014.9 |
| 20260906121442 | 56 | 11 | 0.0 | 2.0 | 0.36 | 0.43 | 0.42 | 100 | 1014.9 |
| 20260906120942 | 56 | 13 | 0.0 | 3.0 | 0.34 | 0.35 | 0.34 | 100 | 1015.1 |
| 20260906120442 | 56 | 227 | 1.0 | 3.0 | 0.32 | 0.33 | 0.32 | 100 | 1015.1 |
| 20260906115442 | 56 | 161 | 0.0 | 1.0 | 0.18 | 0.19 | 0.18 | 100 | 1015.1 |
| 20260906114442 | 56 | 160 | 0.0 | 0.0 | 0.14 | 0.15 | 0.14 | 100 | 1015.1 |
| 20260906113942 | 56 | 160 | 0.0 | 0.0 | 0.11 | 0.12 | 0.11 | 100 | 1015.0 |
| 20260906113442 | 56 | 160 | 0.0 | 0.0 | 0.08 | 0.09 | 0.08 | 100 | 1015.0 |
| 20260906112942 | 56 | 160 | 0.0 | 1.0 | 0.08 | 0.09 | 0.08 | 100 | 1015.0 |
| 20260906112442 | 56 | 160 | 0.0 | 2.0 | 0.08 | 0.09 | 0.08 | 100 | 1014.9 |
| 20260906111942 | 56 | 160 | 1.0 | 2.0 | 0.08 | 0.09 | 0.08 | 100 | 1014.9 |
| 20260906111442 | 55 | 161 | 0.0 | 1.0 | 0.06 | 0.07 | 0.06 | 100 | 1014.9 |
| 20260906110942 | 55 | 161 | 0.0 | 0.0 | 0.00 | 0.01 | 0.00 | 100 | 1014.7 |
| 20260906110012 | 55 | 161 | 0.0 | 0.0 | 0.00 | 0.01 | 0.00 | 100 | 1014.7 |
| 20260906105442 | 55 | 161 | 0.0 | 0.0 | 0.00 | 0.01 | 0.00 | 100 | 1014.6 |
| 20260906104512 | 55 | 161 | 0.0 | 0.0 | 0.00 | 0.01 | 0.00 | 100 | 1014.6 |
| 20260906104011 | 55 | 161 | 0.0 | 0.0 | 0.00 | 0.01 | 0.00 | 99 | 1014.6 |
| 20260906103511 | 55 | 161 | 0.0 | 0.0 | 0.00 | 0.01 | 0.00 | 99 | 1014.6 |
| 20260906102941 | 55 | 161 | 0.0 | 0.0 | 0.00 | 0.01 | 0.00 | 99 | 1014.6 |
| 20260906102442 | 55 | 161 | 0.0 | 0.0 | 0.00 | 0.01 | 0.00 | 99 | 1014.6 |
| 20260906102012 | 55 | 161 | 0.0 | 0.0 | 0.00 | 0.01 | 0.00 | 99 | 1014.6 |
| 20260906101442 | 55 | 161 | 0.0 | 0.0 | 0.00 | 0.01 | 0.00 | 99 | 1014.6 |
| 20260906095441 | 55 | 161 | 0.0 | 0.0 | 0.00 | 0.01 | 0.00 | 97 | 1014.6 |
| 20260906094941 | 55 | 161 | 0.0 | 0.0 | 0.00 | 0.01 | 0.00 | 97 | 1014.6 |
| 20260906094441 | 55 | 161 | 0.0 | 0.0 | 0.00 | 0.01 | 0.00 | 97 | 1014.6 |
| 20260906093941 | 55 | 161 | 0.0 | 0.0 | 0.00 | 0.01 | 0.00 | 97 | 1014.6 |
| 20260906093441 | 55 | 161 | 0.0 | 0.0 | 0.00 | 0.01 | 0.00 | 97 | 1014.6 |
| 20260906092941 | 55 | 161 | 0.0 | 0.0 | 0.00 | 0.01 | 0.00 | 96 | 1014.6 |
| 20260906092511 | 55 | 161 | 0.0 | 0.0 | 0.00 | 0.01 | 0.00 | 96 | 1014.5 |
| 20260906091941 | 55 | 161 | 0.0 | 0.0 | 0.00 | 0.01 | 0.00 | 96 | 1014.5 |
| 20260906091441 | 55 | 161 | 0.0 | 0.0 | 0.00 | 0.01 | 0.00 | 96 | 1014.5 |
| 20260906090941 | 55 | 161 | 0.0 | 0.0 | 0.00 | 0.01 | 0.00 | 96 | 1014.4 |
| 20260906090441 | 56 | 161 | 0.0 | 0.0 | 0.00 | 0.01 | 0.00 | 96 | 1014.4 |
| 20260906085940 | 56 | 161 | 0.0 | 0.0 | 0.00 | 0.01 | 0.00 | 96 | 1014.4 |
| 20260906085441 | 56 | 161 | 0.0 | 0.0 | 0.00 | 0.01 | 0.00 | 96 | 1014.4 |
| 20260906084940 | 56 | 161 | 0.0 | 0.0 | 0.00 | 0.01 | 0.00 | 96 | 1014.4 |
| 20260906084510 | 56 | 161 | 0.0 | 0.0 | 0.00 | 0.01 | 0.00 | 96 | 1014.4 |
| 20260906083941 | 56 | 161 | 0.0 | 0.0 | 0.00 | 0.01 | 0.00 | 96 | 1014.5 |
| 20260906082940 | 56 | 161 | 0.0 | 0.0 | 0.00 | 0.01 | 0.00 | 95 | 1014.5 |
| 20260906082440 | 56 | 161 | 0.0 | 0.0 | 0.00 | 0.01 | 0.00 | 95 | 1014.6 |
| 20260906081941 | 56 | 161 | 0.0 | 0.0 | 0.00 | 0.01 | 0.00 | 95 | 1014.6 |
| 20260906081440 | 56 | 161 | 0.0 | 0.0 | 0.00 | 0.01 | 0.00 | 95 | 1014.6 |
| 20260906080440 | 56 | 161 | 0.0 | 0.0 | 0.00 | 0.01 | 0.00 | 95 | 1014.6 |
| 20260906075940 | 56 | 161 | 0.0 | 0.0 | 0.00 | 0.01 | 0.00 | 95 | 1014.6 |
| 20260906075510 | 56 | 161 | 0.0 | 0.0 | 0.00 | 0.01 | 0.00 | 94 | 1014.6 |
| 20260906074510 | 56 | 161 | 0.0 | 0.0 | 0.00 | 0.01 | 0.00 | 94 | 1014.6 |
| 20260906073940 | 56 | 161 | 0.0 | 0.0 | 0.00 | 0.01 | 0.00 | 94 | 1014.6 |
| 20260906073440 | 56 | 161 | 0.0 | 0.0 | 0.00 | 0.01 | 0.00 | 94 | 1014.6 |
| 20260906072440 | 56 | 161 | 0.0 | 0.0 | 0.00 | 0.01 | 0.00 | 94 | 1014.6 |
| 20260906071940 | 56 | 161 | 0.0 | 0.0 | 0.00 | 0.01 | 0.00 | 94 | 1014.6 |
| 20260906071510 | 56 | 161 | 0.0 | 0.0 | 0.00 | 0.01 | 0.00 | 93 | 1014.6 |
| 20260906070940 | 56 | 161 | 0.0 | 0.0 | 0.00 | 0.01 | 0.00 | 93 | 1014.6 |
| 20260906070440 | 56 | 161 | 0.0 | 0.0 | 0.00 | 0.01 | 0.00 | 93 | 1014.6 |
| 20260906070010 | 56 | 161 | 0.0 | 0.0 | 0.00 | 0.01 | 0.00 | 93 | 1014.6 |
| 20260906065440 | 56 | 161 | 0.0 | 0.0 | 0.00 | 0.01 | 0.01 | 93 | 1014.6 |
| 20260906065010 | 57 | 161 | 0.0 | 0.0 | 0.00 | 0.01 | 0.01 | 93 | 1014.6 |
| 20260906064439 | 56 | 161 | 0.0 | 0.0 | 0.00 | 0.01 | 0.01 | 93 | 1014.6 |
| 20260906063940 | 56 | 161 | 0.0 | 0.0 | 0.00 | 0.01 | 0.01 | 93 | 1014.6 |
| 20260906063510 | 56 | 161 | 0.0 | 0.0 | 0.00 | 0.01 | 0.01 | 93 | 1014.6 |
| 20260906062940 | 56 | 161 | 0.0 | 0.0 | 0.00 | 0.01 | 0.01 | 93 | 1014.6 |
| 20260906062510 | 56 | 161 | 0.0 | 0.0 | 0.00 | 0.01 | 0.01 | 92 | 1014.7 |
| 20260906061939 | 56 | 161 | 0.0 | 0.0 | 0.00 | 0.01 | 0.01 | 92 | 1014.7 |
| 20260906060939 | 56 | 161 | 0.0 | 0.0 | 0.00 | 0.01 | 0.01 | 92 | 1014.7 |
| 20260906060440 | 56 | 161 | 0.0 | 0.0 | 0.00 | 0.01 | 0.01 | 92 | 1014.7 |
| 20260906060009 | 56 | 161 | 0.0 | 1.0 | 0.00 | 0.01 | 0.01 | 92 | 1014.7 |
| 20260906055510 | 57 | 161 | 0.0 | 1.0 | 0.00 | 0.01 | 0.01 | 91 | 1014.7 |
| 20260906055009 | 57 | 161 | 0.0 | 1.0 | 0.00 | 0.01 | 0.01 | 91 | 1014.7 |
| 20260906053510 | 57 | 161 | 0.0 | 0.0 | 0.00 | 0.01 | 0.01 | 91 | 1014.9 |
| 20260906053009 | 57 | 161 | 0.0 | 0.0 | 0.00 | 0.01 | 0.01 | 90 | 1014.9 |
| 20260906052010 | 57 | 161 | 0.0 | 0.0 | 0.00 | 0.01 | 0.01 | 89 | 1014.8 |
| 20260906051439 | 57 | 161 | 0.0 | 0.0 | 0.00 | 0.01 | 0.01 | 89 | 1014.8 |
| 20260906051009 | 57 | 161 | 0.0 | 0.0 | 0.00 | 0.01 | 0.01 | 89 | 1014.8 |
| 20260906050439 | 57 | 161 | 0.0 | 0.0 | 0.00 | 0.01 | 0.01 | 88 | 1014.8 |
| 20260906050009 | 57 | 161 | 0.0 | 0.0 | 0.00 | 0.01 | 0.01 | 88 | 1014.8 |
| 20260906045509 | 57 | 161 | 0.0 | 0.0 | 0.00 | 0.01 | 0.01 | 87 | 1014.9 |
| 20260906045009 | 58 | 161 | 0.0 | 0.0 | 0.00 | 0.01 | 0.01 | 87 | 1014.9 |
| 20260906044509 | 58 | 161 | 0.0 | 0.0 | 0.00 | 0.01 | 0.01 | 86 | 1014.9 |
| 20260906044009 | 58 | 161 | 0.0 | 0.0 | 0.00 | 0.01 | 0.01 | 86 | 1015.0 |
| 20260906043509 | 58 | 161 | 0.0 | 0.0 | 0.00 | 0.01 | 0.01 | 85 | 1015.0 |
| 20260906043009 | 58 | 161 | 0.0 | 0.0 | 0.00 | 0.01 | 0.01 | 85 | 1015.0 |
| 20260906042509 | 58 | 161 | 0.0 | 1.0 | 0.00 | 0.01 | 0.01 | 85 | 1015.0 |
| 20260906042009 | 58 | 161 | 0.0 | 1.0 | 0.00 | 0.01 | 0.01 | 85 | 1015.0 |
| 20260906041509 | 58 | 161 | 0.0 | 0.0 | 0.00 | 0.01 | 0.01 | 84 | 1015.0 |
| 20260906041009 | 58 | 161 | 0.0 | 0.0 | 0.00 | 0.01 | 0.01 | 84 | 1015.0 |
| 20260906040508 | 59 | 161 | 0.0 | 0.0 | 0.00 | 0.01 | 0.01 | 83 | 1015.1 |
| 20260906035438 | 59 | 161 | 0.0 | 0.0 | 0.00 | 0.01 | 0.01 | 82 | 1014.9 |
| 20260906034438 | 59 | 161 | 0.0 | 0.0 | 0.00 | 0.01 | 0.01 | 82 | 1014.9 |
| 20260906034008 | 59 | 161 | 0.0 | 0.0 | 0.00 | 0.01 | 0.01 | 82 | 1014.7 |
| 20260906033438 | 60 | 161 | 0.0 | 0.0 | 0.00 | 0.01 | 0.01 | 82 | 1014.8 |
| 20260906032509 | 60 | 161 | 0.0 | 0.0 | 0.00 | 0.01 | 0.01 | 81 | 1014.7 |
| 20260906031938 | 60 | 161 | 0.0 | 0.0 | 0.00 | 0.01 | 0.01 | 80 | 1014.7 |
| 20260906031508 | 61 | 161 | 0.0 | 0.0 | 0.00 | 0.01 | 0.01 | 80 | 1014.7 |
| 20260906031008 | 61 | 161 | 0.0 | 0.0 | 0.00 | 0.01 | 0.01 | 80 | 1014.7 |
| 20260906030439 | 61 | 161 | 0.0 | 0.0 | 0.00 | 0.01 | 0.01 | 80 | 1014.7 |
| 20260906025508 | 62 | 161 | 0.0 | 0.0 | 0.00 | 0.01 | 0.01 | 79 | 1014.8 |
| 20260906025008 | 62 | 161 | 0.0 | 0.0 | 0.00 | 0.01 | 0.01 | 79 | 1014.8 |
| 20260906024008 | 62 | 161 | 0.0 | 1.0 | 0.00 | 0.01 | 0.01 | 77 | 1014.8 |
| 20260906023508 | 63 | 257 | 0.0 | 0.0 | 0.00 | 0.01 | 0.01 | 76 | 1014.8 |
| 20260906023009 | 63 | 257 | 0.0 | 0.0 | 0.00 | 0.01 | 0.01 | 76 | 1014.8 |
| 20260906022508 | 63 | 257 | 0.0 | 0.0 | 0.00 | 0.01 | 0.01 | 75 | 1014.8 |
| 20260906022008 | 64 | 257 | 0.0 | 0.0 | 0.00 | 0.01 | 0.01 | 75 | 1014.8 |
| 20260906021508 | 64 | 257 | 0.0 | 2.0 | 0.00 | 0.01 | 0.01 | 74 | 1014.8 |
| 20260906020938 | 64 | 257 | 0.0 | 2.0 | 0.00 | 0.01 | 0.01 | 74 | 1014.8 |
| 20260906020508 | 64 | 288 | 0.0 | 2.0 | 0.00 | 0.01 | 0.01 | 74 | 1014.8 |
| 20260906020009 | 65 | 292 | 0.0 | 0.0 | 0.00 | 0.01 | 0.01 | 73 | 1014.8 |
| 20260906015508 | 65 | 291 | 0.0 | 0.0 | 0.00 | 0.01 | 0.01 | 72 | 1014.8 |
| 20260906015008 | 65 | 292 | 0.0 | 0.0 | 0.00 | 0.01 | 0.01 | 71 | 1014.8 |
| 20260906014508 | 66 | 292 | 0.0 | 0.0 | 0.00 | 0.01 | 0.01 | 71 | 1014.8 |
| 20260906014008 | 66 | 292 | 0.0 | 0.0 | 0.00 | 0.01 | 0.01 | 70 | 1014.8 |
| 20260906013508 | 66 | 292 | 0.0 | 0.0 | 0.00 | 0.01 | 0.01 | 69 | 1014.8 |
| 20260906013008 | 66 | 292 | 0.0 | 3.0 | 0.00 | 0.01 | 0.01 | 69 | 1014.8 |
| 20260906012438 | 66 | 292 | 0.0 | 3.0 | 0.00 | 0.01 | 0.01 | 70 | 1014.8 |
| 20260906012008 | 66 | 132 | 0.0 | 4.0 | 0.00 | 0.01 | 0.01 | 70 | 1014.8 |
| 20260906011508 | 66 | 68 | 0.0 | 4.0 | 0.00 | 0.01 | 0.01 | 70 | 1014.8 |
| 20260906011007 | 66 | 75 | 2.0 | 3.0 | 0.00 | 0.01 | 0.01 | 71 | 1014.8 |
| 20260906010508 | 66 | 104 | 3.0 | 3.0 | 0.00 | 0.01 | 0.01 | 70 | 1014.8 |
| 20260906010007 | 66 | 213 | 0.0 | 0.0 | 0.00 | 0.01 | 0.01 | 71 | 1014.8 |
| 20260906005509 | 66 | 219 | 0.0 | 0.0 | 0.00 | 0.01 | 0.01 | 70 | 1014.8 |
| 20260906005008 | 66 | 181 | 0.0 | 0.0 | 0.00 | 0.01 | 0.01 | 69 | 1014.8 |
| 20260906004007 | 67 | 236 | 0.0 | 0.0 | 0.00 | 0.01 | 0.01 | 69 | 1014.8 |
| 20260906003507 | 67 | 250 | 0.0 | 0.0 | 0.00 | 0.01 | 0.01 | 69 | 1014.8 |
| 20260906003007 | 67 | 263 | 0.0 | 0.0 | 0.00 | 0.01 | 0.01 | 69 | 1014.8 |
| 20260906002438 | 68 | 262 | 0.0 | 0.0 | 0.00 | 0.01 | 0.01 | 68 | 1014.7 |
| 20260906002007 | 68 | 49 | 0.0 | 2.0 | 0.00 | 0.01 | 0.01 | 65 | 1014.7 |
| 20260906001508 | 68 | 38 | 0.0 | 4.0 | 0.00 | 0.01 | 0.01 | 65 | 1014.7 |
| 20260906001008 | 68 | 243 | 0.0 | 4.0 | 0.00 | 0.01 | 0.01 | 64 | 1014.8 |
| 20260906000507 | 68 | 192 | 0.0 | 0.0 | 0.00 | 0.01 | 0.01 | 65 | 1014.8 |
| 20260906000007 | 68 | 270 | 0.0 | 0.0 | 0.00 | 0.01 | 0.01 | 65 | 1014.8 |
| 20260905235437 | 68 | 283 | 0.0 | 1.0 | 0.00 | 0.01 | 0.01 | 65 | 1014.8 |
| 20260905234507 | 69 | 318 | 0.0 | 2.0 | 0.00 | 0.01 | 0.01 | 62 | 1014.8 |
| 20260905233937 | 69 | 27 | 0.0 | 3.0 | 0.00 | 0.01 | 0.01 | 61 | 1014.9 |
| 20260905233007 | 69 | 261 | 0.0 | 0.0 | 0.00 | 0.01 | 0.01 | 64 | 1014.9 |
| 20260905231437 | 68 | 256 | 0.0 | 0.0 | 0.00 | 0.01 | 0.01 | 65 | 1015.0 |
| 20260905230937 | 68 | 266 | 0.0 | 0.0 | 0.00 | 0.01 | 0.01 | 65 | 1015.1 |
| 20260905230507 | 68 | 277 | 0.0 | 2.0 | 0.00 | 0.01 | 0.01 | 66 | 1015.1 |
| 20260905225507 | 67 | 304 | 2.0 | 3.0 | 0.00 | 0.01 | 0.01 | 66 | 1015.2 |
| 20260905225007 | 67 | 292 | 0.0 | 0.0 | 0.00 | 0.01 | 0.01 | 69 | 1015.2 |
| 20260905224437 | 67 | 286 | 0.0 | 1.0 | 0.00 | 0.01 | 0.01 | 69 | 1015.2 |
| 20260905224007 | 67 | 5 | 0.0 | 1.0 | 0.00 | 0.01 | 0.01 | 69 | 1015.3 |
| 20260905223007 | 66 | 125 | 0.0 | 1.0 | 0.00 | 0.01 | 0.01 | 70 | 1015.3 |
| 20260905222507 | 66 | 65 | 0.0 | 4.0 | 0.00 | 0.01 | 0.01 | 71 | 1015.4 |
| 20260905221507 | 66 | 360 | 3.0 | 4.0 | 0.00 | 0.01 | 0.01 | 70 | 1015.4 |
| 20260905220937 | 66 | 63 | 1.0 | 3.0 | 0.00 | 0.01 | 0.01 | 71 | 1015.5 |
| 20260905220507 | 66 | 355 | 0.0 | 3.0 | 0.00 | 0.01 | 0.01 | 69 | 1015.5 |
| 20260905220007 | 66 | 74 | 2.0 | 3.0 | 0.00 | 0.01 | 0.01 | 67 | 1015.5 |
| 20260905215507 | 66 | 64 | 0.0 | 3.0 | 0.00 | 0.01 | 0.01 | 65 | 1015.6 |
| 20260905215006 | 67 | 66 | 0.0 | 3.0 | 0.00 | 0.01 | 0.01 | 66 | 1015.6 |
| 20260905214507 | 67 | 40 | 3.0 | 5.0 | 0.00 | 0.01 | 0.01 | 64 | 1015.6 |
| 20260905214007 | 67 | 55 | 2.0 | 5.0 | 0.00 | 0.01 | 0.01 | 64 | 1015.7 |
| 20260905213506 | 67 | 19 | 1.0 | 6.0 | 0.00 | 0.01 | 0.01 | 64 | 1015.7 |
| 20260905213007 | 67 | 105 | 1.0 | 6.0 | 0.00 | 0.01 | 0.01 | 63 | 1015.7 |
| 20260905212437 | 67 | 64 | 1.0 | 5.0 | 0.00 | 0.01 | 0.01 | 65 | 1015.8 |
| 20260905212006 | 66 | 142 | 0.0 | 2.0 | 0.00 | 0.01 | 0.01 | 66 | 1015.8 |
| 20260905211437 | 66 | 161 | 0.0 | 3.0 | 0.00 | 0.01 | 0.01 | 65 | 1015.8 |
| 20260905211007 | 66 | 161 | 2.0 | 3.0 | 0.00 | 0.01 | 0.01 | 65 | 1015.9 |
| 20260905210507 | 66 | 5 | 0.0 | 3.0 | 0.00 | 0.01 | 0.01 | 68 | 1015.9 |
| 20260905210006 | 66 | 26 | 0.0 | 3.0 | 0.00 | 0.01 | 0.01 | 70 | 1015.9 |